Weather History for Crestview, FL

Change the Weather History Date:

Saturday, March 2, 2013

  Actual Average Record
Temperature  
Mean Temperature 40 °F -  
Max Temperature 48 °F - - ()
Min Temperature 33 °F - - ()
Degree Days  
Heating Degree Days 24    
Moisture  
Dew Point 23 °F    
Average Humidity 50    
Maximum Humidity 76    
Minimum Humidity 34    
Precipitation  
Precipitation 0.00 in - - ()
Sea Level Pressure  
Sea Level Pressure 30.11 in    
Wind  
Wind Speed 11 mph (NW)    
Max Wind Speed 17 mph    
Max Gust Speed 26 mph    
Visibility 10 miles    
Events      
T = Trace of Precipitation, MM = Missing Value Source: NWS Daily Summary

Daily Weather History Graph

Daily Weather History Graph

Search for Another Location

Airport:

Trip Planner

Search our weather history database for the weather conditions in past years. The results will help you decide how hot, cold, wet, or windy it might be!

Date:

Astronomy

Mar. 02, 2013 Rise Set
Actual Time 6:11 AM CST 5:45 PM CST
Civil Twilight 5:46 AM CST 6:09 PM CST
Nautical Twilight 5:18 AM CST 6:37 PM CST
Astronomical Twilight 4:51 AM CST 7:05 PM CST
Moon 10:58 PM CST (3/2) 9:02 AM CST (3/2)
Length of Visible Light 12h 22m
Length of Day
11h 34m
Waning Gibbous, 74% of the Moon is Illuminated
Mar 2
Waning Gibbous
Mar 4
Last Quarter
Mar 11
New
Mar 19
First Quarter
Mar 27
Full

Hourly Weather History & Observations

Time (CST) Temp. Windchill Dew Point Humidity Pressure Visibility Wind Dir Wind Speed Gust Speed Precip Events Conditions
12:58 AM 36.7 °F 31.2 °F 28.8 °F 73% 30.11 in 10.0 mi NW 6.9 mph - N/A   Clear
1:58 AM 35.2 °F 30.3 °F 27.5 °F 73% 30.11 in 10.0 mi WNW 5.8 mph - N/A   Clear
2:58 AM 34.2 °F 30.0 °F 27.1 °F 75% 30.09 in 10.0 mi WNW 4.6 mph - N/A   Clear
3:58 AM 33.4 °F 30.4 °F 26.6 °F 76% 30.09 in 10.0 mi West 3.5 mph - N/A   Clear
8:55 AM 41.9 °F 34.3 °F 24.4 °F 50% 30.16 in 10.0 mi WNW 15.0 mph - N/A   Partly Cloudy
9:55 AM 43.9 °F 36.8 °F 22.5 °F 43% 30.15 in 10.0 mi WNW 15.0 mph 20.7 mph N/A   Partly Cloudy
10:55 AM 46.6 °F - 21.4 °F 37% 30.13 in 10.0 mi WNW 17.3 mph 25.3 mph N/A   Partly Cloudy
11:55 AM 48.2 °F - 22.6 °F 37% 30.10 in 10.0 mi NW 12.7 mph 26.5 mph N/A   Scattered Clouds
12:55 PM 48.2 °F - 21.2 °F 34% 30.07 in 10.0 mi NNW 16.1 mph 23.0 mph N/A   Scattered Clouds
1:53 PM 48.2 °F - 21.2 °F 34% 30.06 in 10.0 mi NNW 16.1 mph 24.2 mph N/A   Mostly Cloudy
1:55 PM 48.7 °F - 21.4 °F 34% 30.07 in 10.0 mi WNW 17.3 mph 24.2 mph N/A   Mostly Cloudy
2:53 PM 48.2 °F - 21.2 °F 34% 30.05 in 10.0 mi WNW 13.8 mph 19.6 mph N/A   Mostly Cloudy
3:58 PM 45.7 °F 38.8 °F 22.3 °F 40% 30.06 in 10.0 mi NW 16.1 mph - N/A   Mostly Cloudy
4:58 PM 43.0 °F 36.8 °F 22.1 °F 44% 30.09 in 10.0 mi NNW 11.5 mph - N/A   Overcast
5:53 PM 41.0 °F 33.1 °F 23.0 °F 49% 30.11 in 10.0 mi NW 15.0 mph - N/A   Overcast
7:58 PM 40.3 °F 33.4 °F 24.1 °F 52% 30.14 in 10.0 mi NW 11.5 mph - N/A   Overcast
8:58 PM 39.7 °F 31.5 °F 22.6 °F 50% 30.15 in 10.0 mi NW 15.0 mph 20.7 mph N/A   Overcast
9:58 PM 39.4 °F 32.3 °F 23.4 °F 53% 30.15 in 10.0 mi NNW 11.5 mph - N/A   Overcast
10:58 PM 38.7 °F 30.1 °F 21.7 °F 51% 30.15 in 10.0 mi NW 15.0 mph - N/A   Overcast
11:58 PM 38.1 °F 32.3 °F 21.9 °F 52% 30.15 in 10.0 mi NW 8.1 mph - N/A   Overcast